TimeMST,TemperatureF,Dew PointF,Humidity,Sea Level PressureIn,VisibilityMPH,Wind Direction,Wind SpeedMPH,Gust SpeedMPH,PrecipitationIn,Events,Conditions,WindDirDegrees,DateUTC
12:53 AM,-5.1,-11.0,76,30.55,10.0,Calm,Calm,-,N/A,,Overcast,0,2013-01-15 07:53:00
1:53 AM,-6.0,-11.0,79,30.56,10.0,Calm,Calm,-,N/A,,Clear,0,2013-01-15 08:53:00
2:53 AM,-9.9,-15.0,78,30.59,10.0,Calm,Calm,-,N/A,,Clear,0,2013-01-15 09:53:00
3:53 AM,-11.2,-16.6,77,30.30,10.0,Calm,Calm,-,N/A,,Clear,0,2013-01-15 10:53:00
4:53 AM,-15.0,-18.0,86,30.63,10.0,Calm,Calm,-,N/A,,Clear,0,2013-01-15 11:53:00
5:53 AM,-11.9,-17.0,78,30.67,10.0,Calm,Calm,-,N/A,,Clear,0,2013-01-15 12:53:00
6:53 AM,-11.0,-17.0,75,30.69,10.0,Calm,Calm,-,N/A,,Clear,0,2013-01-15 13:53:00
7:53 AM,-5.1,-11.9,72,30.69,10.0,Calm,Calm,-,N/A,,Clear,0,2013-01-15 14:53:00
8:53 AM,-2.0,-9.0,72,30.75,10.0,Calm,Calm,-,N/A,,Clear,0,2013-01-15 15:53:00
9:53 AM,1.9,-7.1,66,30.75,10.0,Calm,Calm,-,N/A,,Clear,0,2013-01-15 16:53:00
10:53 AM,-2.0,-9.0,72,30.76,10.0,NW,10.4,-,N/A,,Clear,320,2013-01-15 17:53:00
11:53 AM,1.9,-6.0,69,30.72,10.0,NNW,3.5,-,N/A,,Clear,340,2013-01-15 18:53:00
12:53 PM,5.0,-4.0,66,30.67,10.0,Calm,Calm,-,N/A,,Clear,0,2013-01-15 19:53:00
1:53 PM,5.0,-2.9,70,30.68,10.0,NW,10.4,-,N/A,,Clear,320,2013-01-15 20:53:00
2:53 PM,6.1,-2.0,69,30.70,10.0,NNW,9.2,-,N/A,,Clear,330,2013-01-15 21:53:00
3:53 PM,6.1,-2.9,67,30.72,10.0,NNW,6.9,-,N/A,,Clear,330,2013-01-15 22:53:00
4:53 PM,5.0,-5.1,63,30.74,10.0,West,3.5,-,N/A,,Clear,270,2013-01-15 23:53:00
5:53 PM,3.0,-6.0,66,30.74,10.0,Calm,Calm,-,N/A,,Scattered Clouds,0,2013-01-16 00:53:00
6:53 PM,1.9,-7.1,66,30.75,10.0,Calm,Calm,-,N/A,,Mostly Cloudy,0,2013-01-16 01:53:00
7:53 PM,-0.9,-8.0,72,30.76,10.0,Calm,Calm,-,N/A,,Clear,0,2013-01-16 02:53:00
8:53 PM,-6.0,-11.9,75,30.77,10.0,Calm,Calm,-,N/A,,Clear,0,2013-01-16 03:53:00
9:53 PM,-0.9,-7.1,75,30.75,10.0,Calm,Calm,-,N/A,,Clear,0,2013-01-16 04:53:00
10:53 PM,-7.1,-13.0,75,30.81,10.0,Calm,Calm,-,N/A,,Clear,0,2013-01-16 05:53:00
11:53 PM,-0.0,-8.0,69,30.77,10.0,Calm,Calm,-,N/A,,Clear,0,2013-01-16 06:53:00